KD4NH Weather Reports


time (UTC)temp
F
wind
direction
speed
knots
gust
knots
rain 1hr
in
rain 24hr
in
rain mn
in
humidity
%
barometer
mb
20260505004041 63 224 0.9 2.6 0.00 0.00 0.00 68 1011.8
20260505003555 63 224 1.7 3.5 0.00 0.00 0.00 68 1011.7
20260505003018 63 223 1.7 3.5 0.00 0.00 0.00 67 1011.7
20260505002524 64 233 0.0 1.7 0.00 0.00 0.00 67 1011.7
20260505002040 64 233 0.0 0.0 0.00 0.00 0.00 66 1011.6
20260505001546 65 233 0.0 0.0 0.00 0.00 0.00 66 1011.6
20260505001008 65 232 0.0 0.0 0.00 0.00 0.00 61 1011.6
20260505000514 66 233 0.0 0.0 0.00 0.00 0.00 63 1011.6
20260505000033 67 233 0.0 0.0 0.00 0.00 0.00 63 1011.6
20260504235539 67 233 0.0 0.0 0.00 0.00 0.00 62 1011.5
20260504235054 68 232 0.0 0.0 0.00 0.00 0.00 60 1011.5
20260504234506 68 232 0.0 2.6 0.00 0.00 0.00 57 1011.5
20260504234021 69 230 0.9 2.6 0.00 0.00 0.00 55 1011.4
20260504233531 69 230 0.9 1.7 0.00 0.00 0.00 56 1011.4
20260504233047 70 230 0.0 2.6 0.00 0.00 0.00 54 1011.4
20260504232559 70 261 0.0 6.1 0.00 0.00 0.00 51 1011.4
20260504232015 70 313 0.9 4.3 0.00 0.00 0.00 50 1011.3
20260504231527 70 266 2.6 4.3 0.00 0.00 0.00 50 1011.2
20260504231041 70 291 0.0 3.5 0.00 0.00 0.00 50 1011.2
20260504230557 71 234 0.9 3.5 0.00 0.00 0.00 52 1011.2
20260504230010 71 49 2.6 3.5 0.00 0.00 0.00 48 1011.2
20260504225523 71 15 1.7 5.2 0.00 0.00 0.00 48 1011.2
20260504225035 71 319 2.6 5.2 0.00 0.00 0.00 49 1011.3
20260504224545 71 233 0.9 9.6 0.00 0.00 0.00 50 1011.2
20260504224004 71 12 4.3 7.8 0.00 0.00 0.00 48 1011.2
20260504223522 71 360 4.3 7.8 0.00 0.00 0.00 49 1011.2
20260504223041 71 340 3.5 7.8 0.00 0.00 0.00 48 1011.2
20260504222548 71 21 2.6 5.2 0.00 0.00 0.00 49 1011.3
20260504222059 71 342 2.6 5.2 0.00 0.00 0.00 48 1011.4
20260504222001 71 350 1.7 5.2 0.00 0.00 0.00 49 1011.3
20260504221520 71 278 1.7 7.0 0.00 0.00 0.00 49 1011.4
20260504221029 71 328 2.6 7.0 0.00 0.00 0.00 49 1011.4
20260504220547 71 350 4.3 8.7 0.00 0.00 0.00 49 1011.4
20260504220003 71 24 4.3 7.8 0.00 0.00 0.00 49 1011.3
20260504215516 71 360 4.3 7.8 0.00 0.00 0.00 49 1011.4
20260504215031 71 311 2.6 8.7 0.00 0.00 0.00 50 1011.4
20260504214541 72 333 4.3 8.7 0.00 0.00 0.00 48 1011.3
20260504214055 72 307 4.3 7.0 0.00 0.00 0.00 50 1011.4
20260504213509 72 355 1.7 7.0 0.00 0.00 0.00 49 1011.5
20260504213026 72 321 4.3 7.0 0.00 0.00 0.00 49 1011.4
20260504212540 72 106 0.9 5.2 0.00 0.00 0.00 49 1011.4
20260504212050 72 339 2.6 7.8 0.00 0.00 0.00 48 1011.4
20260504211520 72 273 2.6 7.8 0.00 0.00 0.00 51 1011.5
20260504211017 73 340 3.5 7.8 0.00 0.00 0.00 48 1011.5
20260504210533 73 304 1.7 5.2 0.00 0.00 0.00 49 1011.6
20260504210046 72 255 0.9 9.6 0.00 0.00 0.00 50 1011.7
20260504205558 73 336 5.2 11.3 0.00 0.00 0.00 48 1011.9
20260504205015 73 269 7.8 11.3 0.00 0.00 0.00 47 1011.9
20260504204525 73 5 0.9 4.3 0.00 0.00 0.00 50 1011.9
20260504204041 73 200 1.7 8.7 0.00 0.00 0.00 49 1011.9
20260504203549 73 342 0.9 8.7 0.00 0.00 0.00 50 1011.9
20260504203005 73 38 1.7 7.0 0.00 0.00 0.00 50 1011.9
20260504202516 73 314 3.5 8.7 0.00 0.00 0.00 49 1012.0
20260504202029 73 80 2.6 8.7 0.00 0.00 0.00 46 1012.1
20260504201540 73 288 0.9 7.0 0.00 0.00 0.00 50 1012.2
20260504201053 73 360 1.7 7.0 0.00 0.00 0.00 48 1012.3
20260504200505 73 250 1.7 7.0 0.00 0.00 0.00 50 1012.4
20260504200022 73 237 1.7 7.0 0.00 0.00 0.00 52 1012.5
20260504195531 72 213 0.9 8.7 0.00 0.00 0.00 50 1012.6
20260504195043 71 182 2.6 8.7 0.00 0.00 0.00 53 1012.7
20260504194556 72 41 4.3 10.4 0.00 0.00 0.00 52 1012.8
20260504194013 71 300 3.5 10.4 0.00 0.00 0.00 53 1012.9
20260504193524 72 5 3.5 13.9 0.00 0.00 0.00 49 1012.9
20260504193039 73 49 4.3 13.9 0.00 0.00 0.00 48 1013.0
20260504192549 73 290 0.9 7.0 0.00 0.00 0.00 47 1013.2
20260504192007 73 294 1.7 4.3 0.00 0.00 0.00 49 1013.3
20260504191517 73 9 0.0 8.7 0.00 0.00 0.00 49 1013.3
20260504191031 73 237 2.6 8.7 0.00 0.00 0.00 48 1013.5
20260504190544 73 226 2.6 7.0 0.00 0.00 0.00 50 1013.7
20260504190109 72 227 1.7 6.1 0.00 0.00 0.00 51 1013.7
20260504190002 72 249 2.6 6.1 0.00 0.00 0.00 47 1013.7
20260504185519 73 5 1.7 6.1 0.00 0.00 0.00 49 1013.7
20260504185029 73 234 2.6 7.0 0.00 0.00 0.00 48 1013.9
20260504184552 73 282 3.5 7.0 0.00 0.00 0.00 50 1014.1
20260504184055 72 249 3.5 10.4 0.00 0.00 0.00 48 1014.1
20260504183511 73 218 6.1 10.4 0.00 0.00 0.00 46 1014.2
20260504183023 73 277 1.7 7.0 0.00 0.00 0.00 48 1014.3
20260504182540 73 305 2.6 7.0 0.00 0.00 0.00 48 1014.3
20260504182049 72 271 1.7 7.8 0.00 0.00 0.00 51 1014.4
20260504181506 72 217 1.7 6.1 0.00 0.00 0.00 48 1014.5
20260504181015 72 221 2.6 7.8 0.00 0.00 0.00 50 1014.5
20260504180530 71 207 3.5 9.6 0.00 0.00 0.00 50 1014.5
20260504180039 71 263 7.0 9.6 0.00 0.00 0.00 50 1014.6
20260504175554 71 225 0.9 7.8 0.00 0.00 0.00 48 1014.7
20260504175007 70 267 0.0 7.0 0.00 0.00 0.00 53 1014.7
20260504174519 69 315 0.9 7.8 0.00 0.00 0.00 48 1014.7
20260504174033 69 271 1.7 7.8 0.00 0.00 0.00 53 1014.8
20260504173548 68 51 2.6 5.2 0.00 0.00 0.00 47 1014.7
20260504173058 68 56 3.5 7.0 0.00 0.00 0.00 51 1014.8
20260504172513 67 19 1.7 11.3 0.00 0.00 0.00 48 1014.9
20260504172025 68 25 4.3 11.3 0.00 0.00 0.00 48 1015.0
20260504171541 68 355 0.9 7.0 0.00 0.00 0.00 48 1015.0
20260504171049 69 200 0.9 6.1 0.00 0.00 0.00 49 1015.1
20260504170505 69 232 1.7 6.1 0.00 0.00 0.00 48 1015.2
20260504151059 64 232 0.9 8.7 0.00 0.00 0.00 59 1017.3
20260504150513 63 336 5.2 8.7 0.00 0.00 0.00 53 1017.3
20260504141029 60 355 1.7 7.8 0.00 0.00 0.00 58 1018.1
20260504140543 59 33 3.5 7.8 0.00 0.00 0.00 60 1017.9
20260504130513 51 47 0.9 3.5 0.00 0.00 0.00 77 1017.4
20260504110529 36 209 0.0 0.0 0.00 0.00 0.00 92 1016.5
20260504100600 36 209 0.9 2.6 0.00 0.00 0.00 91 1016.8
20260504100504 36 209 0.0 2.6 0.00 0.00 0.00 90 1016.9
20260504081506 37 269 0.0 0.0 0.00 0.00 0.00 87 1017.4
20260504081024 38 269 0.0 0.0 0.00 0.00 0.00 87 1017.4
20260504080532 38 269 0.0 0.0 0.00 0.00 0.00 88 1017.2
20260504050536 40 269 0.0 0.0 0.00 0.00 0.00 80 1017.2
20260504045504 41 269 0.0 0.0 0.00 0.00 0.00 79 1017.3
20260504045017 41 269 0.0 0.0 0.00 0.00 0.00 79 1017.3
20260504044528 41 269 0.0 0.0 0.00 0.00 0.00 79 1017.3
20260504044042 41 269 0.0 0.0 0.00 0.00 0.00 79 1017.2
20260504043552 41 269 0.0 0.0 0.00 0.00 0.00 78 1017.2
20260504043013 41 269 0.0 0.0 0.00 0.00 0.00 79 1017.0
20260504042519 41 269 0.0 0.0 0.00 0.00 0.00 78 1017.0
20260504042039 42 269 0.0 0.0 0.00 0.00 0.00 78 1017.0
20260504041547 42 269 0.0 0.0 0.00 0.00 0.00 78 1017.2
20260504041059 42 269 0.0 0.0 0.00 0.00 0.00 77 1017.2
20260504041004 42 269 0.0 0.0 0.00 0.00 0.00 77 1017.2
20260504040517 42 269 0.0 0.0 0.00 0.00 0.00 76 1017.1
20260504040034 42 269 0.0 0.0 0.00 0.00 0.00 76 1017.2
20260504035540 42 269 0.0 0.0 0.00 0.00 0.00 77 1017.1
20260504035100 43 269 0.0 0.0 0.00 0.00 0.00 75 1017.0
20260504034509 43 269 0.0 0.0 0.00 0.00 0.00 75 1017.1
20260504034027 43 269 0.0 0.0 0.00 0.00 0.00 76 1017.0
20260504033536 43 269 0.0 0.0 0.00 0.00 0.00 75 1017.0
20260504033050 43 269 0.0 0.0 0.00 0.00 0.00 74 1016.7
20260504032600 43 269 0.0 0.0 0.00 0.00 0.00 74 1016.8
20260504032504 43 269 0.0 0.0 0.00 0.00 0.00 74 1016.8
20260504032021 43 269 0.0 0.0 0.00 0.00 0.00 73 1016.9
20260504031530 44 269 0.0 0.0 0.00 0.00 0.00 72 1016.9
20260504031051 44 269 0.0 0.0 0.00 0.00 0.00 73 1016.8
20260504030557 44 269 0.0 0.0 0.00 0.00 0.00 72 1016.7
20260504030012 44 269 0.0 0.0 0.00 0.00 0.00 72 1016.8
20260504025522 44 269 0.0 0.0 0.00 0.00 0.00 72 1016.8
20260504025038 44 269 0.0 0.0 0.00 0.00 0.00 72 1016.7
20260504024551 45 269 0.0 0.0 0.00 0.00 0.00 72 1016.7
20260504024009 45 269 0.0 0.0 0.00 0.00 0.00 71 1016.7
20260504023518 45 269 0.0 0.0 0.00 0.00 0.00 71 1016.8
20260504023037 45 269 0.0 0.0 0.00 0.00 0.00 70 1016.8
20260504022544 45 269 0.0 0.0 0.00 0.00 0.00 71 1016.7
20260504022058 45 269 0.0 0.0 0.00 0.00 0.00 70 1016.7
20260504021514 45 269 0.0 0.0 0.00 0.00 0.00 70 1016.7
20260504021026 46 269 0.0 0.0 0.00 0.00 0.00 69 1016.8
20260504020540 46 269 0.0 0.0 0.00 0.00 0.00 69 1016.8
20260504020107 46 269 0.0 0.0 0.00 0.00 0.00 68 1017.0
20260504015510 46 269 0.0 0.0 0.00 0.00 0.00 68 1017.0
20260504015021 46 269 0.0 0.0 0.00 0.00 0.00 68 1016.9
20260504014541 47 269 0.0 0.0 0.00 0.00 0.00 67 1016.9
20260504014048 47 269 0.0 0.0 0.00 0.00 0.00 67 1016.7
20260504013506 47 269 0.0 0.0 0.00 0.00 0.00 67 1016.7
20260504013021 47 269 0.0 0.0 0.00 0.00 0.00 67 1016.7
20260504012536 47 269 0.0 0.0 0.00 0.00 0.00 66 1016.6
20260504012048 48 269 0.0 0.0 0.00 0.00 0.00 65 1016.5
20260504011505 48 269 0.0 0.0 0.00 0.00 0.00 64 1016.5
20260504011021 48 269 0.0 0.0 0.00 0.00 0.00 66 1016.5
20260504010535 49 269 0.0 0.0 0.00 0.00 0.00 64 1016.4
20260504010048 49 269 0.0 1.7 0.00 0.00 0.00 64 1016.3
20260504005507 49 269 0.0 2.6 0.00 0.00 0.00 65 1016.1
20260504005018 49 269 1.7 2.6 0.00 0.00 0.00 64 1016.1
20260504004536 49 269 1.7 2.6 0.00 0.00 0.00 64 1016.0